UAL88 KDEN-KABQ

Flight info

Callsign UAL88
Flight time 1h 6m
Altitude 32000
Route SMMUR2 DAAYE DATME SNDIA4
Aircraft B77W/H-SDE1E2E3FGHIJ2J3J4J5M1RWXY/LB1D1

Departure

Time 2026-05-06 14:26
Airport Denver International Airport (KDEN)

Arrival

Time 2026-05-06 15:32
Airport Albuquerque International Sunport (KABQ)
Time Latitude Longitude Altitude Speed Heading
2026-05-06 13:30 39.85802 -104.67284 5385 ft 0 kts 359°
2026-05-06 14:13 39.85790 -104.67284 5380 ft 3 kts 359°
2026-05-06 14:13 39.85767 -104.67283 5381 ft 3 kts 358°
2026-05-06 14:13 39.85748 -104.67286 5382 ft 3 kts 20°
2026-05-06 14:14 39.85732 -104.67296 5381 ft 3 kts 51°
2026-05-06 14:14 39.85726 -104.67309 5380 ft 3 kts 92°
2026-05-06 14:14 39.85729 -104.67336 5382 ft 3 kts 103°
2026-05-06 14:14 39.85733 -104.67361 5383 ft 1 kts 93°
2026-05-06 14:15 39.85733 -104.67366 5383 ft 1 kts 93°
2026-05-06 14:18 39.85733 -104.67365 5384 ft 1 kts 93°
2026-05-06 14:18 39.85729 -104.67288 5381 ft 14 kts 97°
2026-05-06 14:18 39.85699 -104.67167 5380 ft 14 kts 109°
2026-05-06 14:18 39.85670 -104.67047 5384 ft 14 kts 103°
2026-05-06 14:19 39.85661 -104.66923 5387 ft 14 kts 91°
2026-05-06 14:19 39.85659 -104.66796 5389 ft 14 kts 91°
2026-05-06 14:19 39.85658 -104.66669 5391 ft 14 kts 91°
2026-05-06 14:19 39.85666 -104.66548 5388 ft 12 kts 66°
2026-05-06 14:20 39.85683 -104.66438 5391 ft 12 kts 83°
2026-05-06 14:20 39.85727 -104.66354 5388 ft 12 kts 13°
2026-05-06 14:20 39.85813 -104.66350 5392 ft 12 kts
2026-05-06 14:20 39.85900 -104.66349 5389 ft 12 kts
2026-05-06 14:21 39.85986 -104.66346 5390 ft 12 kts 360°
2026-05-06 14:21 39.86073 -104.66347 5390 ft 12 kts 359°
2026-05-06 14:21 39.86160 -104.66347 5389 ft 12 kts
2026-05-06 14:21 39.86246 -104.66344 5389 ft 12 kts
2026-05-06 14:22 39.86332 -104.66341 5382 ft 12 kts
2026-05-06 14:22 39.86419 -104.66340 5381 ft 12 kts 360°
2026-05-06 14:22 39.86542 -104.66343 5382 ft 25 kts 360°
2026-05-06 14:22 39.86758 -104.66342 5376 ft 31 kts
2026-05-06 14:23 39.86951 -104.66338 5372 ft 25 kts
2026-05-06 14:23 39.87128 -104.66334 5367 ft 25 kts
2026-05-06 14:23 39.87293 -104.66331 5368 ft 20 kts
2026-05-06 14:23 39.87433 -104.66327 5365 ft 19 kts
2026-05-06 14:24 39.87486 -104.66253 5365 ft 11 kts 59°
2026-05-06 14:24 39.87551 -104.66214 5365 ft 11 kts
2026-05-06 14:24 39.87618 -104.66212 5364 ft 8 kts
2026-05-06 14:24 39.87674 -104.66212 5363 ft 8 kts 360°
2026-05-06 14:25 39.87730 -104.66208 5362 ft 8 kts 17°
2026-05-06 14:25 39.87754 -104.66142 5362 ft 11 kts 88°
2026-05-06 14:25 39.87753 -104.65944 5360 ft 46 kts 90°
2026-05-06 14:25 39.87748 -104.65041 5355 ft 152 kts 90°
2026-05-06 14:26 39.87731 -104.63236 5514 ft 232 kts 89°
2026-05-06 14:26 39.87719 -104.61171 7303 ft 231 kts 94°
2026-05-06 14:26 39.87279 -104.59026 8117 ft 254 kts 110°
2026-05-06 14:26 39.86563 -104.56853 8940 ft 266 kts 112°
2026-05-06 14:27 39.85802 -104.54616 9781 ft 275 kts 112°
2026-05-06 14:27 39.85039 -104.52312 10103 ft 280 kts 111°
2026-05-06 14:27 39.84285 -104.49950 10076 ft 285 kts 111°
2026-05-06 14:27 39.83541 -104.47559 10099 ft 284 kts 110°
2026-05-06 14:28 39.82826 -104.45237 10072 ft 283 kts 110°
2026-05-06 14:28 39.82098 -104.42866 10069 ft 279 kts 110°
2026-05-06 14:28 39.81262 -104.40635 10075 ft 275 kts 127°
2026-05-06 14:28 39.79757 -104.39000 10434 ft 294 kts 150°
2026-05-06 14:29 39.77726 -104.38024 10707 ft 328 kts 163°
2026-05-06 14:29 39.75428 -104.37200 11108 ft 353 kts 163°
2026-05-06 14:29 39.73032 -104.36343 11986 ft 359 kts 167°
2026-05-06 14:29 39.70533 -104.36190 12811 ft 369 kts 189°
2026-05-06 14:30 39.68085 -104.37191 14039 ft 366 kts 202°
2026-05-06 14:30 39.65710 -104.38474 14907 ft 375 kts 204°
2026-05-06 14:30 39.63285 -104.39796 15839 ft 381 kts 205°
2026-05-06 14:30 39.60827 -104.41120 16900 ft 384 kts 205°
2026-05-06 14:31 39.58341 -104.42437 17940 ft 388 kts 206°
2026-05-06 14:31 39.55817 -104.43762 18832 ft 394 kts 206°
2026-05-06 14:31 39.53313 -104.45186 19639 ft 392 kts 214°
2026-05-06 14:31 39.51223 -104.47389 20448 ft 386 kts 233°
2026-05-06 14:32 39.49562 -104.50109 21325 ft 386 kts 235°
2026-05-06 14:32 39.47901 -104.52845 22216 ft 389 kts 234°
2026-05-06 14:32 39.46207 -104.55596 23197 ft 390 kts 234°
2026-05-06 14:32 39.44502 -104.58342 24057 ft 393 kts 234°
2026-05-06 14:33 39.42770 -104.61114 24730 ft 398 kts 234°
2026-05-06 14:33 39.41009 -104.63923 25369 ft 403 kts 233°
2026-05-06 14:33 39.39234 -104.66750 26013 ft 407 kts 233°
2026-05-06 14:33 39.37441 -104.69608 26661 ft 411 kts 233°
2026-05-06 14:34 39.35634 -104.72500 27293 ft 415 kts 233°
2026-05-06 14:34 39.33814 -104.75415 27894 ft 419 kts 233°
2026-05-06 14:34 39.31994 -104.78327 28472 ft 423 kts 233°
2026-05-06 14:34 39.30141 -104.81289 29161 ft 425 kts 233°
2026-05-06 14:35 39.28263 -104.84285 30061 ft 421 kts 233°
2026-05-06 14:35 39.26426 -104.87213 30804 ft 419 kts 233°
2026-05-06 14:35 39.24594 -104.90132 31395 ft 419 kts 233°
2026-05-06 14:35 39.22754 -104.93063 31965 ft 421 kts 233°
2026-05-06 14:36 39.20909 -104.95998 32144 ft 421 kts 233°
2026-05-06 14:36 39.19070 -104.98922 32132 ft 420 kts 233°
2026-05-06 14:36 39.15339 -105.04743 32134 ft 423 kts 229°
2026-05-06 14:37 39.11273 -105.08307 32137 ft 431 kts 210°
2026-05-06 14:37 39.05856 -105.11676 32119 ft 433 kts 211°
2026-05-06 14:38 39.00447 -105.15127 32116 ft 435 kts 211°
2026-05-06 14:38 38.95030 -105.18622 32115 ft 435 kts 211°
2026-05-06 14:39 38.89624 -105.22113 32111 ft 435 kts 211°
2026-05-06 14:39 38.84213 -105.25602 32106 ft 434 kts 211°
2026-05-06 14:40 38.78812 -105.29075 32100 ft 434 kts 211°
2026-05-06 14:40 38.73423 -105.32536 32105 ft 433 kts 211°
2026-05-06 14:41 38.68038 -105.35987 32101 ft 433 kts 211°
2026-05-06 14:41 38.62655 -105.39433 32105 ft 433 kts 211°
2026-05-06 14:42 38.57264 -105.42879 32094 ft 434 kts 211°
2026-05-06 14:42 38.51905 -105.46297 32104 ft 434 kts 211°
2026-05-06 14:43 38.46452 -105.49771 32088 ft 435 kts 211°
2026-05-06 14:43 38.41019 -105.53207 32090 ft 437 kts 211°
2026-05-06 14:44 38.35591 -105.56577 32073 ft 437 kts 211°
2026-05-06 14:45 38.27330 -105.61695 32054 ft 438 kts 211°
2026-05-06 14:45 38.21846 -105.65092 32039 ft 439 kts 211°
2026-05-06 14:46 38.16355 -105.68488 32016 ft 439 kts 211°
2026-05-06 14:46 38.10851 -105.71890 32005 ft 440 kts 211°
2026-05-06 14:47 38.05345 -105.75286 31987 ft 441 kts 210°
2026-05-06 14:47 37.99736 -105.78463 31953 ft 446 kts 201°
2026-05-06 14:48 37.93623 -105.80085 31938 ft 450 kts 195°
2026-05-06 14:48 37.87458 -105.81468 31922 ft 449 kts 195°
2026-05-06 14:49 37.81328 -105.82928 31910 ft 448 kts 196°
2026-05-06 14:49 37.75224 -105.84453 31915 ft 447 kts 196°
2026-05-06 14:50 37.69122 -105.85999 31926 ft 447 kts 196°
2026-05-06 14:50 37.63019 -105.87543 31944 ft 447 kts 196°
2026-05-06 14:51 37.56923 -105.89080 31965 ft 447 kts 196°
2026-05-06 14:51 37.50834 -105.90611 31988 ft 446 kts 196°
2026-05-06 14:52 37.44743 -105.92139 31987 ft 446 kts 196°
2026-05-06 14:52 37.38648 -105.93667 31987 ft 447 kts 196°
2026-05-06 14:53 37.32549 -105.95192 31967 ft 447 kts 196°
2026-05-06 14:53 37.26409 -105.96726 31936 ft 447 kts 196°
2026-05-06 14:54 37.20309 -105.98247 31908 ft 447 kts 196°
2026-05-06 14:54 37.14198 -105.99768 31874 ft 447 kts 196°
2026-05-06 14:55 37.08120 -106.01278 31853 ft 447 kts 196°
2026-05-06 14:55 37.02018 -106.02792 31858 ft 447 kts 196°
2026-05-06 14:56 36.95921 -106.04302 31863 ft 447 kts 196°
2026-05-06 14:56 36.89983 -106.05771 31874 ft 447 kts 196°
2026-05-06 14:57 36.83888 -106.07276 31875 ft 447 kts 196°
2026-05-06 14:57 36.77788 -106.08780 31883 ft 447 kts 196°
2026-05-06 14:58 36.71684 -106.10283 31890 ft 447 kts 196°
2026-05-06 14:58 36.65596 -106.11825 31891 ft 445 kts 199°
2026-05-06 14:59 36.59776 -106.14286 31896 ft 440 kts 206°
2026-05-06 14:59 36.54067 -106.17029 31901 ft 440 kts 205°
2026-05-06 15:00 36.48317 -106.19661 31904 ft 439 kts 204°
2026-05-06 15:00 36.45503 -106.20909 31881 ft 422 kts 204°
2026-05-06 15:00 36.42706 -106.22151 31500 ft 429 kts 204°
2026-05-06 15:00 36.39928 -106.23382 31013 ft 416 kts 204°
2026-05-06 15:01 36.37203 -106.24591 30498 ft 416 kts 204°
2026-05-06 15:01 36.34478 -106.25801 29953 ft 416 kts 203°
2026-05-06 15:01 36.31755 -106.27004 29325 ft 415 kts 203°
2026-05-06 15:01 36.29038 -106.28201 28749 ft 414 kts 203°
2026-05-06 15:02 36.26333 -106.29391 28196 ft 412 kts 203°
2026-05-06 15:02 36.23634 -106.30579 27643 ft 411 kts 203°
2026-05-06 15:02 36.20913 -106.31777 27100 ft 410 kts 203°
2026-05-06 15:02 36.18266 -106.32942 26583 ft 409 kts 203°
2026-05-06 15:03 36.15587 -106.34120 26066 ft 408 kts 202°
2026-05-06 15:03 36.12881 -106.35308 25546 ft 407 kts 202°
2026-05-06 15:03 36.10242 -106.36460 25052 ft 407 kts 202°
2026-05-06 15:03 36.07575 -106.37612 24552 ft 406 kts 202°
2026-05-06 15:04 36.04907 -106.38761 24049 ft 406 kts 202°
2026-05-06 15:04 36.02205 -106.39923 23517 ft 406 kts 202°
2026-05-06 15:04 35.99537 -106.41074 22951 ft 405 kts 202°
2026-05-06 15:04 35.96879 -106.42219 22415 ft 403 kts 202°
2026-05-06 15:05 35.94244 -106.43353 21910 ft 401 kts 202°
2026-05-06 15:05 35.91621 -106.44481 21560 ft 395 kts 202°
2026-05-06 15:05 35.89043 -106.45574 21143 ft 391 kts 202°
2026-05-06 15:05 35.86469 -106.46631 20672 ft 389 kts 201°
2026-05-06 15:06 35.83906 -106.47670 20241 ft 387 kts 201°
2026-05-06 15:06 35.81360 -106.48702 19799 ft 384 kts 201°
2026-05-06 15:06 35.78830 -106.49728 19372 ft 381 kts 201°
2026-05-06 15:06 35.76316 -106.50749 18960 ft 378 kts 201°
2026-05-06 15:07 35.73844 -106.51757 18717 ft 370 kts 201°
2026-05-06 15:07 35.71407 -106.52749 18272 ft 368 kts 201°
2026-05-06 15:07 35.68999 -106.53729 17928 ft 361 kts 201°
2026-05-06 15:07 35.66641 -106.54687 17674 ft 352 kts 202°
2026-05-06 15:08 35.64336 -106.55626 17352 ft 347 kts 202°
2026-05-06 15:08 35.62051 -106.56557 16909 ft 345 kts 202°
2026-05-06 15:08 35.59777 -106.57483 16473 ft 344 kts 202°
2026-05-06 15:08 35.57553 -106.58523 16073 ft 339 kts 207°
2026-05-06 15:09 35.55413 -106.59707 15678 ft 336 kts 208°
2026-05-06 15:09 35.53292 -106.60897 15310 ft 335 kts 208°
2026-05-06 15:09 35.51209 -106.62037 14983 ft 317 kts 207°
2026-05-06 15:09 35.49238 -106.63099 14395 ft 305 kts 207°
2026-05-06 15:10 35.47315 -106.64136 13953 ft 300 kts 207°
2026-05-06 15:10 35.45382 -106.65180 13451 ft 307 kts 208°
2026-05-06 15:10 35.43425 -106.66236 13013 ft 308 kts 207°
2026-05-06 15:10 35.41467 -106.67290 12653 ft 306 kts 207°
2026-05-06 15:11 35.39520 -106.68339 12300 ft 305 kts 207°
2026-05-06 15:11 35.37594 -106.69374 11941 ft 296 kts 208°
2026-05-06 15:11 35.35768 -106.70351 11596 ft 277 kts 208°
2026-05-06 15:11 35.34879 -106.70827 11431 ft 269 kts 208°
2026-05-06 15:12 35.33151 -106.71759 11179 ft 270 kts 208°
2026-05-06 15:12 35.31362 -106.72728 10887 ft 291 kts 208°
2026-05-06 15:12 35.29489 -106.73737 10548 ft 295 kts 208°
2026-05-06 15:12 35.27622 -106.74787 10219 ft 295 kts 210°
2026-05-06 15:13 35.26419 -106.75526 10134 ft 289 kts 211°
2026-05-06 15:13 35.24653 -106.76629 9926 ft 283 kts 211°
2026-05-06 15:13 35.22897 -106.77724 9589 ft 282 kts 211°
2026-05-06 15:13 35.21158 -106.78799 9400 ft 276 kts 210°
2026-05-06 15:14 35.19452 -106.79847 9251 ft 266 kts 210°
2026-05-06 15:14 35.17828 -106.80842 9159 ft 256 kts 210°
2026-05-06 15:14 35.16246 -106.81743 9019 ft 246 kts 199°
2026-05-06 15:14 35.14555 -106.81806 8868 ft 249 kts 166°
2026-05-06 15:15 35.12992 -106.80891 8653 ft 253 kts 147°
2026-05-06 15:15 35.11534 -106.79681 8406 ft 254 kts 147°
2026-05-06 15:15 35.10082 -106.78477 8173 ft 249 kts 147°
2026-05-06 15:15 35.08659 -106.77306 7939 ft 246 kts 147°
2026-05-06 15:16 35.07245 -106.76148 7671 ft 243 kts 148°
2026-05-06 15:16 35.05858 -106.75012 7442 ft 237 kts 147°
2026-05-06 15:16 35.04749 -106.73602 7161 ft 227 kts 116°
2026-05-06 15:16 35.04495 -106.71803 6880 ft 207 kts 91°
2026-05-06 15:17 35.04489 -106.70136 6619 ft 189 kts 93°
2026-05-06 15:17 35.04472 -106.68524 6477 ft 195 kts 93°
2026-05-06 15:17 35.04465 -106.67429 6244 ft 199 kts 94°
2026-05-06 15:17 35.04457 -106.65793 5976 ft 187 kts 93°
2026-05-06 15:18 35.04449 -106.64276 5675 ft 167 kts 95°
2026-05-06 15:18 35.04446 -106.62926 5465 ft 153 kts 93°
2026-05-06 15:18 35.04440 -106.61614 5356 ft 154 kts 95°
2026-05-06 15:18 35.04419 -106.60411 5345 ft 144 kts 90°
2026-05-06 15:19 35.04442 -106.58982 5952 ft 186 kts 89°
2026-05-06 15:19 35.04508 -106.57283 6844 ft 214 kts 88°
2026-05-06 15:19 35.04531 -106.55472 7450 ft 203 kts 90°
2026-05-06 15:19 35.04451 -106.53776 8259 ft 202 kts 101°
2026-05-06 15:20 35.03897 -106.52120 9339 ft 223 kts 125°
2026-05-06 15:20 35.02731 -106.50734 10149 ft 258 kts 147°
2026-05-06 15:20 35.01009 -106.49860 9944 ft 275 kts 174°
2026-05-06 15:20 34.99050 -106.49790 9622 ft 292 kts 185°
2026-05-06 15:21 34.96977 -106.49955 9352 ft 302 kts 187°
2026-05-06 15:21 34.94882 -106.50170 9114 ft 300 kts 187°
2026-05-06 15:21 34.92836 -106.50391 9029 ft 290 kts 187°
2026-05-06 15:21 34.90857 -106.50591 8971 ft 281 kts 184°
2026-05-06 15:22 34.88922 -106.50175 8981 ft 293 kts 158°
2026-05-06 15:22 34.87241 -106.48707 8958 ft 304 kts 131°
2026-05-06 15:22 34.86214 -106.46520 8953 ft 307 kts 106°
2026-05-06 15:22 34.85903 -106.44010 8953 ft 303 kts 91°
2026-05-06 15:23 34.85864 -106.41451 9024 ft 300 kts 88°
2026-05-06 15:23 34.85870 -106.38953 9387 ft 294 kts 88°
2026-05-06 15:23 34.85874 -106.36422 9731 ft 303 kts 88°
2026-05-06 15:23 34.85876 -106.33832 10118 ft 308 kts 88°
2026-05-06 15:24 34.85879 -106.31169 10480 ft 310 kts 88°
2026-05-06 15:24 34.85957 -106.28555 10784 ft 309 kts 78°
2026-05-06 15:24 34.86720 -106.26112 10857 ft 310 kts 52°
2026-05-06 15:24 34.88195 -106.24303 10865 ft 301 kts 28°
2026-05-06 15:25 34.90122 -106.23419 10872 ft 287 kts
2026-05-06 15:25 34.92090 -106.23184 10893 ft 285 kts 359°
2026-05-06 15:25 34.94079 -106.23081 10888 ft 286 kts 358°
2026-05-06 15:25 34.96062 -106.23006 10904 ft 287 kts 358°
2026-05-06 15:26 34.98063 -106.22934 10896 ft 287 kts 358°
2026-05-06 15:26 35.00036 -106.22861 10887 ft 287 kts 358°
2026-05-06 15:26 35.02028 -106.22797 10904 ft 286 kts 358°
2026-05-06 15:26 35.04045 -106.22729 10900 ft 286 kts 358°
2026-05-06 15:27 35.06017 -106.22759 10879 ft 279 kts 346°
2026-05-06 15:27 35.07778 -106.23644 10882 ft 273 kts 320°
2026-05-06 15:27 35.08976 -106.25395 10903 ft 271 kts 295°
2026-05-06 15:27 35.09367 -106.27635 10914 ft 274 kts 269°
2026-05-06 15:28 35.09025 -106.29936 10934 ft 278 kts 257°
2026-05-06 15:28 35.08473 -106.32212 10925 ft 281 kts 255°
2026-05-06 15:28 35.07874 -106.34490 10920 ft 282 kts 253°
2026-05-06 15:28 35.07033 -106.36681 10702 ft 288 kts 245°
2026-05-06 15:29 35.06197 -106.38840 10658 ft 282 kts 251°
2026-05-06 15:29 35.05500 -106.41077 10268 ft 277 kts 254°
2026-05-06 15:29 35.04889 -106.43244 9615 ft 262 kts 253°
2026-05-06 15:29 35.04485 -106.45407 8379 ft 258 kts 265°
2026-05-06 15:30 35.04339 -106.47492 7794 ft 234 kts 268°
2026-05-06 15:30 35.04305 -106.49353 7531 ft 206 kts 270°
2026-05-06 15:30 35.04323 -106.51021 7087 ft 192 kts 270°
2026-05-06 15:30 35.04370 -106.52580 6621 ft 173 kts 270°
2026-05-06 15:31 35.04401 -106.53568 6294 ft 162 kts 268°
2026-05-06 15:31 35.04410 -106.54853 5928 ft 139 kts 266°
2026-05-06 15:31 35.04394 -106.56071 5663 ft 148 kts 267°
2026-05-06 15:32 35.04414 -106.58522 5363 ft 125 kts 268°
2026-05-06 15:32 35.04417 -106.59394 5345 ft 81 kts 270°
2026-05-06 15:32 35.04426 -106.59964 5342 ft 55 kts 273°
2026-05-06 15:32 35.04488 -106.60216 5346 ft 12 kts 300°
2026-05-06 15:33 35.04491 -106.60224 5346 ft 0 kts 300°
2026-05-06 15:33 35.04513 -106.60271 5345 ft 18 kts 299°
2026-05-06 15:34 35.04572 -106.60444 5342 ft 23 kts 280°
2026-05-06 15:34 35.04577 -106.60640 5338 ft 23 kts 270°
2026-05-06 15:34 35.04574 -106.60838 5336 ft 23 kts 268°
2026-05-06 15:34 35.04574 -106.61035 5334 ft 23 kts 271°
2026-05-06 15:35 35.04581 -106.61232 5340 ft 22 kts 272°
2026-05-06 15:35 35.04565 -106.61414 5338 ft 22 kts 259°
2026-05-06 15:35 35.04553 -106.61568 5336 ft 12 kts 270°
2026-05-06 15:35 35.04553 -106.61584 5336 ft 0 kts 271°
2026-05-06 15:36 35.04553 -106.61586 5336 ft 3 kts 271°
2026-05-06 15:36 35.04576 -106.61699 5339 ft 16 kts 307°
2026-05-06 15:37 35.04596 -106.61722 5337 ft 9 kts 327°
2026-05-06 15:37 35.04678 -106.61720 5335 ft 0 kts
2026-05-06 15:44 35.04688 -106.61743 5337 ft 0 kts 17°
2026-05-06 15:44 35.04691 -106.61742 5337 ft 0 kts 17°
2026-05-06 15:44 35.04688 -106.61743 5337 ft 0 kts 17°
2026-05-06 15:44 35.04683 -106.61726 5331 ft 0 kts 17°
2026-05-06 15:45 35.04683 -106.61721 5331 ft 0 kts
2026-05-06 15:45 35.04685 -106.61721 5337 ft 0 kts
2026-05-06 15:45 35.04688 -106.61721 5337 ft 0 kts
2026-05-06 15:45 35.04682 -106.61721 5331 ft 0 kts
2026-05-06 15:46 35.04686 -106.61721 5337 ft 0 kts